Regional Weather Roundup
Issued by NWS

Home | Current Version | Previous Version | Graphics & Text | Print | Product List | Glossary On
Versions: 1 2 3 4 5 6 7 8 9 10 11 12 13 14 15 16 17 18 19 20 21 22 23 24 25 26 27 28 29 30 31 32 33 34 35 36 37 38 39 40 41 42 43 44 45 46 47 48 49 50
000
ASUS43 KOAX 220802
RWRNE

WEATHER ROUNDUP FOR NEBRASKA
NATIONAL WEATHER SERVICE OMAHA NE
200 AM CST SUN JAN 22 2017

NOTES: SATELLITE DATA IS BEING USED TO AUGMENT CLOUD COVER ABOVE
       12000 FEET.
       "FAIR" INDICATES FEW OR NO CLOUDS BELOW 12,000 FEET WITH NO
       SIGNIFICANT WEATHER AND/OR OBSTRUCTIONS TO VISIBILITY.

  * THESE STATIONS DO NOT REPORT WEATHER SUCH AS RAIN...SNOW OR FOG.

NEZ001>004-019>022-054>056-220900-
NEBRASKA PANHANDLE

CITY           SKY/WX    TMP DP  RH WIND       PRES   REMARKS
SCOTTSBLUFF    MOCLDY    28  24  85 NW6       29.71R WCI  22
ALLIANCE       PTCLDY    22  20  92 W5        29.68R WCI  16
CHADRON        CLOUDY    20  18  92 SW5       29.71R WCI  13
KIMBALL        CLOUDY    33  27  78 NW15      29.69R WCI  22
SIDNEY         CLOUDY    32  25  75 NW14      29.69R WCI  22
$$

NEZ057>060-069>072-079>082-220900-
SOUTHWEST NEBRASKA

CITY           SKY/WX    TMP DP  RH WIND       PRES   REMARKS
NORTH PLATTE   CLOUDY    25  23  92 NW3       29.67R
IMPERIAL       CLEAR     30  25  81 NW7       29.67R WCI  23
LEXINGTON      CLOUDY    31  28  91 W7        29.64S WCI  24
MCCOOK         CLOUDY    30  27  88 NW10      29.65R WCI  21
OGALLALA       CLEAR     26  24  94 W3        29.68R
$$

NEZ005>010-023>029-035>040-094-220900-
NORTH CENTRAL NEBRASKA

CITY           SKY/WX    TMP DP  RH WIND       PRES   REMARKS
VALENTINE      CLEAR     27  23  85 W10       29.67R WCI  17
AINSWORTH      CLEAR     28  26  96 W6        29.65R WCI  21
BROKEN BOW     CLEAR     32  29  88 N6        29.64R WCI  26
O`NEILL        CLEAR     31  29  94 NW9       29.64R WCI  23
ORD            CLEAR     29  25  85 NW8       29.63R WCI  21
THEDFORD       CLOUDY    26  25  95 W7        29.67R WCI  18
$$

NEZ041-046>049-061>064-073>077-083>087-220900-
SOUTH CENTRAL NEBRASKA

CITY           SKY/WX    TMP DP  RH WIND       PRES   REMARKS
GRAND ISLAND   CLOUDY    33  30  88 NW10      29.62R WCI  25
AURORA         CLOUDY    32  32  99 NW9       29.61R WCI  24
HASTINGS       CLOUDY    34  30  85 N12       29.62R WCI  25
HEBRON         PTCLDY    33  33 100 CALM      29.59R FOG
HOLDREGE       CLOUDY    32  30  92 N7        29.63R WCI  26
KEARNEY *      CLEAR    N/A N/A N/A MISG        N/A
YORK           CLEAR     32  32 100 N7        29.60S WCI  26
$$

NEZ011>018-030>034-042>045-220900-
NORTHEAST NEBRASKA

CITY           SKY/WX    TMP DP  RH WIND       PRES   REMARKS
NORFOLK        CLEAR     26  25  96 NW8       29.61S WCI  18
ALBION         CLEAR     30  26  83 NW7       29.62S WCI  24
BLAIR          CLEAR     32  30  92 N7        29.59R WCI  26
FREMONT        CLEAR     31  30  99 CALM      29.62R
TEKAMAH        CLEAR     31  28  89 N3        29.62R
WAYNE          MOCLDY    29  29  98 NW8       29.63R FOG     WCI  21
$$

NEZ050>053-065>068-078-088>093-220900-
SOUTHEAST NEBRASKA

CITY           SKY/WX    TMP DP  RH WIND       PRES   REMARKS
LINCOLN        PTCLDY    31  30  96 N6        29.61R WCI  25
OMAHA EPPLEY   PTCLDY    31  27  85 N8        29.61R WCI  23
BEATRICE       CLEAR     31  30  99 CALM      29.58R FOG
FALLS CITY     PTCLDY    34  34 100 NW5       29.56R WCI  30
NEBRASKA CITY  CLEAR     37  34  86 N6        29.58R WCI  33
PLATTSMOUTH    CLOUDY    33  30  91 NW7       29.59R WCI  26
$$

NEZ044-045-051>053-067-220900-
OMAHA AREA

CITY           SKY/WX    TMP DP  RH WIND       PRES   REMARKS
OMAHA EPPLEY   PTCLDY    31  27  85 N8        29.61R WCI  23
BLAIR          CLEAR     32  30  92 N7        29.59R WCI  26
FREMONT        CLEAR     31  30  99 CALM      29.62R
MILLARD        CLOUDY    35  32  89 NW5       29.61R WCI  31
OFFUTT AFB     CLOUDY    31  31 100 CALM      29.60R
PLATTSMOUTH    CLOUDY    33  30  91 NW7       29.59R WCI  26
WAHOO          FAIR      31  30  96 N6        29.61R WCI  25
$$




USA.gov is the U.S. government's official web portal to all federal, state and local government web resources and services.